{"data":{"norad_id":64148,"epoch":"2026-09-20T13:49:41.176992Z","epoch_age_seconds":133769,"freshness":"FRESH","line1":"1 64148U 25112C   26263.57617103  .00010828  00000+0  33697-3 0  9992","line2":"2 64148  97.2836 310.6931 0000680 102.5945 257.5374 15.33469737 72766","mean_motion":15.33469737,"eccentricity":6.8e-5,"inclination_deg":97.2836,"raan_deg":310.6931,"arg_perigee_deg":102.5945,"mean_anomaly_deg":257.5374,"bstar":0.00033697,"rev_number":7276,"period_min":93.904689819125,"perigee_km":465.00421031235,"apogee_km":465.93494080662,"semimajor_km":6843.6065755595,"source":"CELESTRAK","updated_at":"2026-09-21T09:00:35.237766Z"}}